Showing default

CMS-01, 47256

Orbit data source: Space-Track

CMS-01, 47256 is a payload satellite owned by ISRO (IN) in GEO that was launched on Thu, 17 Dec 2020 UTC via a PSLV-XL launch vehicle from the Sirharikota (SRI). Payload-class satellites include a variety of spacecraft equipped with specific instruments for various scientific and technological missions. These include communications satellites like Starlink; space stations such as the ISS; scientific satellites like the Hubble; Earth observation satellites from companies like Planet Labs, Umbra, and HawkEye 360; GPS; miniature CubeSats for education and research; and military/defense satellites.

Not visible in the next 10 days
Identifier
47256, 2020-099A
Orbit
GEO
Country
Flag of ININ / IND
Related business
Manufacturer
ISRO SAC/Banga
Mission
Operational Civil Communications
Bus & Motor
I1K, ISRO LAM
Mass
1,410 kg wet, 559 kg dry
Launch date (UTC)
2020-12-17 (6 years ago)
Launch vehicle
PSLV-XL
Launch site
Sirharikota (SRI)
Object type
Payload
Rocket body
Debris
Shape & HBR
Box + 2 Pan, Unknown HBR
Radar Cross Section
6.811 m², Large (>1 m²)

Expand to show TLE details & history
Last TLE update: 2 days ago

TLE from 2 days ago
0 CMS-01
1 47256U 20099A   26171.40840537 -.00000169  00000-0  00000+0 0  9998
2 47256   0.0154  78.5042 0003485 201.8183 218.3086  1.00270928 20239
Epoch: 2026-06-20T09:48Z
TLE epoch observation values (Epoch: 2026-06-20T09:48:06.223Z)
Latitude
0.01923°
Longitude
82.96911°
Altitude
35,797.883 km
Speed
3.074 km/s
True Right ascension
09h 14m 28s
True Declination
0° 01' 09"
Sunlit
Object was in daylight at epoch
Visualization orbit readout
Latitude
Unknown
Longitude
Unknown
Altitude
Unknown
Speed
Unknown
Apparent Right ascension
Unknown
Apparent Declination
Unknown
Sunlit
N/A
Visualization observer readout
Local Sidereal Time
21:32:03
Azimuth
Unknown
Elevation
Unknown
Doppler factor
Unknown
Orbital elements
Apogee altitude
35,802.6 km
Perigee altitude
35,773.211 km
Semi-major axis
42,166.043 km
Eccentricity
0.00035
Inclination
0.0154°
RAAN
78.5042°
Arg. of periapsis
201.8183°
True anomaly
218.28385°
Mean anomaly
218.3086°
Eccentric anomaly
218.29623°
Mean motion
0.25067 °/min
Orbital period
1,436.16 mins
BSTAR
0
Loading maneuver chart data...
Computing Atmospheric mass density...
Loading historical data...
Loading historical data...
Loading historical data...
Loading historical data...
Loading historical data...
Loading historical data...
Loading historical data...
Other satellites on launch #99 in the year 2020 (2020-12-17 UTC)

Documentation

Showing up to 5 results
|